AAL1229 KORD-KPDX

Flight info

Callsign AAL1229
Flight time 3h 50m
Altitude 34000
Route PMPKN NEATO DLLAN RONIC BAE J70 GEP FAHTU WILTN KU15U HILGR LEWIT TUFFY ZATIP PDT JKNOX HHOOD6
Aircraft A321/M-SDE3FGHIRWY/LB1

Departure

Time 2026-05-06 05:28
Airport Chicago O'Hare International Airport (KORD)

Arrival

Time 2026-05-06 09:19
Airport Portland International Airport (KPDX)
Time Latitude Longitude Altitude Speed Heading
2026-05-06 05:23 41.97337 -87.89850 664 ft 0 kts 145°
2026-05-06 05:23 41.97336 -87.89849 664 ft 1 kts 145°
2026-05-06 05:24 41.97313 -87.89828 666 ft 9 kts 145°
2026-05-06 05:24 41.97262 -87.89757 669 ft 11 kts 112°
2026-05-06 05:24 41.97209 -87.89685 667 ft 11 kts 147°
2026-05-06 05:24 41.97143 -87.89623 669 ft 12 kts 143°
2026-05-06 05:25 41.97090 -87.89525 668 ft 15 kts 115°
2026-05-06 05:25 41.97047 -87.89396 669 ft 15 kts 108°
2026-05-06 05:25 41.97042 -87.89251 669 ft 16 kts 90°
2026-05-06 05:25 41.97043 -87.89101 668 ft 16 kts 89°
2026-05-06 05:26 41.97043 -87.88946 668 ft 17 kts 90°
2026-05-06 05:26 41.97043 -87.88787 668 ft 17 kts 89°
2026-05-06 05:26 41.97044 -87.88627 668 ft 17 kts 90°
2026-05-06 05:26 41.97041 -87.88478 669 ft 12 kts 104°
2026-05-06 05:27 41.96986 -87.88444 668 ft 9 kts 179°
2026-05-06 05:27 41.96924 -87.88454 668 ft 9 kts 212°
2026-05-06 05:27 41.96907 -87.88534 668 ft 10 kts 269°
2026-05-06 05:27 41.96908 -87.88813 666 ft 63 kts 270°
2026-05-06 05:28 41.96905 -87.89698 672 ft 124 kts 270°
2026-05-06 05:28 41.96902 -87.91107 672 ft 175 kts 269°
2026-05-06 05:28 41.96891 -87.92798 1197 ft 179 kts 271°
2026-05-06 05:28 41.97054 -87.94440 1880 ft 176 kts 302°
2026-05-06 05:29 41.97902 -87.95511 2423 ft 176 kts 340°
2026-05-06 05:29 41.99162 -87.95877 2579 ft 195 kts 354°
2026-05-06 05:29 42.00572 -87.96026 2772 ft 214 kts 356°
2026-05-06 05:29 42.02144 -87.96182 2934 ft 238 kts 356°
2026-05-06 05:30 42.03833 -87.96259 3424 ft 247 kts
2026-05-06 05:30 42.05562 -87.96125 4090 ft 251 kts
2026-05-06 05:30 42.07322 -87.95942 4716 ft 256 kts
2026-05-06 05:30 42.09113 -87.95741 5350 ft 260 kts
2026-05-06 05:31 42.10928 -87.95536 6017 ft 263 kts
2026-05-06 05:31 42.12767 -87.95331 6653 ft 267 kts
2026-05-06 05:31 42.14630 -87.95124 7265 ft 271 kts
2026-05-06 05:31 42.16519 -87.94919 7878 ft 275 kts
2026-05-06 05:32 42.18440 -87.94714 8509 ft 278 kts
2026-05-06 05:32 42.20376 -87.94509 9157 ft 281 kts 360°
2026-05-06 05:32 42.22336 -87.94302 9792 ft 284 kts 359°
2026-05-06 05:32 42.24321 -87.94090 10278 ft 291 kts 359°
2026-05-06 05:33 42.26411 -87.93872 10405 ft 311 kts 359°
2026-05-06 05:33 42.28637 -87.93643 10534 ft 330 kts 359°
2026-05-06 05:33 42.30985 -87.93466 10727 ft 343 kts 354°
2026-05-06 05:33 42.33375 -87.93697 11173 ft 346 kts 349°
2026-05-06 05:34 42.35787 -87.93978 11674 ft 351 kts 349°
2026-05-06 05:34 42.38232 -87.94260 12192 ft 355 kts 349°
2026-05-06 05:34 42.40705 -87.94548 12716 ft 359 kts 348°
2026-05-06 05:34 42.43211 -87.94843 13213 ft 363 kts 348°
2026-05-06 05:35 42.45745 -87.95147 13708 ft 368 kts 347°
2026-05-06 05:35 42.48310 -87.95456 14164 ft 372 kts 347°
2026-05-06 05:35 42.50904 -87.95772 14660 ft 375 kts 347°
2026-05-06 05:35 42.53513 -87.96093 15142 ft 378 kts 347°
2026-05-06 05:36 42.56135 -87.96419 15622 ft 381 kts 347°
2026-05-06 05:36 42.58787 -87.96753 16103 ft 384 kts 346°
2026-05-06 05:36 42.61456 -87.97088 16594 ft 387 kts 346°
2026-05-06 05:36 42.64154 -87.97393 17059 ft 391 kts 348°
2026-05-06 05:37 42.66888 -87.97620 17523 ft 396 kts 348°
2026-05-06 05:37 42.69648 -87.97815 17971 ft 397 kts 347°
2026-05-06 05:37 42.72351 -87.98422 18408 ft 390 kts 336°
2026-05-06 05:37 42.74840 -87.99647 18791 ft 382 kts 325°
2026-05-06 05:38 42.77151 -88.01381 19193 ft 380 kts 321°
2026-05-06 05:38 42.79476 -88.03207 19623 ft 382 kts 321°
2026-05-06 05:38 42.81758 -88.05000 20036 ft 385 kts 321°
2026-05-06 05:38 42.84087 -88.06824 20450 ft 387 kts 321°
2026-05-06 05:39 42.86431 -88.08656 20839 ft 390 kts 321°
2026-05-06 05:39 42.88796 -88.10502 21242 ft 393 kts 321°
2026-05-06 05:39 42.91174 -88.12357 21617 ft 395 kts 321°
2026-05-06 05:39 42.93570 -88.14224 22003 ft 398 kts 321°
2026-05-06 05:40 42.95983 -88.16105 22373 ft 400 kts 321°
2026-05-06 05:40 42.98406 -88.17996 22727 ft 403 kts 321°
2026-05-06 05:40 43.00843 -88.19902 23105 ft 405 kts 320°
2026-05-06 05:40 43.03293 -88.21826 23484 ft 407 kts 320°
2026-05-06 05:41 43.05757 -88.23766 23786 ft 409 kts 320°
2026-05-06 05:41 43.08225 -88.25714 24093 ft 411 kts 320°
2026-05-06 05:41 43.10664 -88.27732 24385 ft 406 kts 315°
2026-05-06 05:41 43.12808 -88.30166 24684 ft 396 kts 306°
2026-05-06 05:42 43.14660 -88.32935 24988 ft 394 kts 303°
2026-05-06 05:42 43.16491 -88.35736 25275 ft 396 kts 303°
2026-05-06 05:42 43.18332 -88.38552 25572 ft 397 kts 303°
2026-05-06 05:42 43.20177 -88.41368 25869 ft 399 kts 303°
2026-05-06 05:43 43.22038 -88.44201 26205 ft 400 kts 304°
2026-05-06 05:43 43.23902 -88.47039 26516 ft 401 kts 303°
2026-05-06 05:43 43.25772 -88.49887 26797 ft 403 kts 304°
2026-05-06 05:43 43.27650 -88.52749 27062 ft 404 kts 304°
2026-05-06 05:44 43.29533 -88.55624 27335 ft 406 kts 304°
2026-05-06 05:44 43.31424 -88.58521 27599 ft 407 kts 304°
2026-05-06 05:44 43.33319 -88.61431 27855 ft 409 kts 304°
2026-05-06 05:44 43.35215 -88.64351 28113 ft 410 kts 304°
2026-05-06 05:45 43.37123 -88.67287 28366 ft 412 kts 304°
2026-05-06 05:45 43.39033 -88.70224 28620 ft 414 kts 304°
2026-05-06 05:45 43.40959 -88.73182 28886 ft 415 kts 304°
2026-05-06 05:45 43.42887 -88.76148 29179 ft 417 kts 304°
2026-05-06 05:46 43.44819 -88.79122 29505 ft 417 kts 304°
2026-05-06 05:46 43.46751 -88.82094 29897 ft 415 kts 304°
2026-05-06 05:46 43.48676 -88.85059 30238 ft 414 kts 304°
2026-05-06 05:46 43.50585 -88.88008 30617 ft 411 kts 304°
2026-05-06 05:47 43.52484 -88.90949 30952 ft 409 kts 304°
2026-05-06 05:47 43.54371 -88.93876 31261 ft 408 kts 303°
2026-05-06 05:47 43.56227 -88.96758 31556 ft 407 kts 303°
2026-05-06 05:47 43.58103 -88.99672 31852 ft 406 kts 303°
2026-05-06 05:48 43.59973 -89.02582 32145 ft 405 kts 303°
2026-05-06 05:48 43.61862 -89.05526 32436 ft 404 kts 303°
2026-05-06 05:48 43.63723 -89.08430 32761 ft 403 kts 303°
2026-05-06 05:48 43.65550 -89.11283 33041 ft 402 kts 303°
2026-05-06 05:49 43.67400 -89.14170 33299 ft 401 kts 303°
2026-05-06 05:49 43.69247 -89.17055 33548 ft 401 kts 303°
2026-05-06 05:49 43.71090 -89.19941 33792 ft 400 kts 303°
2026-05-06 05:49 43.72932 -89.22831 33938 ft 401 kts 303°
2026-05-06 05:50 43.76609 -89.28601 33969 ft 398 kts 303°
2026-05-06 05:50 43.80273 -89.34352 33965 ft 398 kts 303°
2026-05-06 05:51 43.83927 -89.40102 33985 ft 397 kts 303°
2026-05-06 05:51 43.87558 -89.45835 33967 ft 395 kts 303°
2026-05-06 05:52 43.91180 -89.51570 33966 ft 395 kts 303°
2026-05-06 05:52 43.94797 -89.57299 33971 ft 395 kts 303°
2026-05-06 05:53 43.98413 -89.63045 33974 ft 395 kts 303°
2026-05-06 05:53 44.02007 -89.68758 33978 ft 395 kts 303°
2026-05-06 05:54 44.05610 -89.74493 33983 ft 392 kts 303°
2026-05-06 05:54 44.09190 -89.80215 33982 ft 392 kts 303°
2026-05-06 05:55 44.12767 -89.85938 33982 ft 392 kts 303°
2026-05-06 05:55 44.16337 -89.91667 33975 ft 392 kts 303°
2026-05-06 05:56 44.19911 -89.97414 33978 ft 392 kts 303°
2026-05-06 05:56 44.23482 -90.03161 34001 ft 392 kts 303°
2026-05-06 05:57 44.27039 -90.08890 33983 ft 390 kts 303°
2026-05-06 05:57 44.30193 -90.14876 33977 ft 379 kts 290°
2026-05-06 05:58 44.32161 -90.21626 33965 ft 375 kts 286°
2026-05-06 05:58 44.34060 -90.28427 33964 ft 376 kts 286°
2026-05-06 05:59 44.35954 -90.35233 33968 ft 376 kts 286°
2026-05-06 05:59 44.37830 -90.42049 33981 ft 376 kts 286°
2026-05-06 06:00 44.39713 -90.48877 33983 ft 376 kts 286°
2026-05-06 06:00 44.41577 -90.55655 33986 ft 376 kts 286°
2026-05-06 06:01 44.43436 -90.62477 33992 ft 375 kts 285°
2026-05-06 06:01 44.45295 -90.69292 33984 ft 375 kts 285°
2026-05-06 06:02 44.46859 -90.75001 33983 ft 375 kts 285°
2026-05-06 06:02 44.48715 -90.81785 33988 ft 376 kts 285°
2026-05-06 06:03 44.50575 -90.88628 33987 ft 376 kts 285°
2026-05-06 06:03 44.52429 -90.95480 33990 ft 376 kts 285°
2026-05-06 06:04 44.54281 -91.02350 33995 ft 376 kts 285°
2026-05-06 06:04 44.56127 -91.09211 33993 ft 376 kts 285°
2026-05-06 06:05 44.57970 -91.16075 34004 ft 376 kts 285°
2026-05-06 06:05 44.59811 -91.22955 34000 ft 377 kts 285°
2026-05-06 06:06 44.61653 -91.29848 34020 ft 378 kts 284°
2026-05-06 06:06 44.63492 -91.36768 33989 ft 379 kts 284°
2026-05-06 06:07 44.65334 -91.43706 33984 ft 380 kts 284°
2026-05-06 06:07 44.67179 -91.50667 33993 ft 380 kts 284°
2026-05-06 06:08 44.69007 -91.57599 34002 ft 381 kts 284°
2026-05-06 06:08 44.70848 -91.64604 33992 ft 382 kts 284°
2026-05-06 06:09 44.72687 -91.71628 33999 ft 383 kts 284°
2026-05-06 06:09 44.74524 -91.78660 34001 ft 383 kts 284°
2026-05-06 06:10 44.76366 -91.85706 34001 ft 384 kts 284°
2026-05-06 06:10 44.78199 -91.92763 34009 ft 384 kts 284°
2026-05-06 06:11 44.80030 -91.99825 34013 ft 385 kts 284°
2026-05-06 06:11 44.81853 -92.06855 34017 ft 385 kts 284°
2026-05-06 06:12 44.83680 -92.13954 34025 ft 385 kts 284°
2026-05-06 06:12 44.85493 -92.21063 34021 ft 385 kts 284°
2026-05-06 06:13 44.87312 -92.28175 34025 ft 386 kts 284°
2026-05-06 06:13 44.89134 -92.35295 34031 ft 386 kts 284°
2026-05-06 06:14 44.90958 -92.42442 34026 ft 387 kts 284°
2026-05-06 06:14 44.92778 -92.49591 34026 ft 388 kts 284°
2026-05-06 06:15 44.94579 -92.56711 34029 ft 388 kts 284°
2026-05-06 06:15 44.96386 -92.63895 34038 ft 388 kts 284°
2026-05-06 06:16 44.98189 -92.71086 34041 ft 390 kts 284°
2026-05-06 06:16 45.00001 -92.78333 34017 ft 392 kts 284°
2026-05-06 06:17 45.01819 -92.85612 34014 ft 393 kts 284°
2026-05-06 06:17 45.03638 -92.92916 34022 ft 394 kts 284°
2026-05-06 06:18 45.05453 -93.00242 34025 ft 395 kts 284°
2026-05-06 06:18 45.07268 -93.07582 34042 ft 395 kts 284°
2026-05-06 06:19 45.09082 -93.14931 34024 ft 396 kts 284°
2026-05-06 06:19 45.10883 -93.22244 34028 ft 396 kts 284°
2026-05-06 06:20 45.12686 -93.29621 34038 ft 396 kts 284°
2026-05-06 06:20 45.14491 -93.37002 34052 ft 397 kts 287°
2026-05-06 06:21 45.16802 -93.44178 34041 ft 401 kts 290°
2026-05-06 06:21 45.19131 -93.51364 34039 ft 401 kts 289°
2026-05-06 06:22 45.21453 -93.58580 34048 ft 402 kts 289°
2026-05-06 06:22 45.23771 -93.65794 34051 ft 402 kts 289°
2026-05-06 06:23 45.26089 -93.73017 34056 ft 402 kts 289°
2026-05-06 06:23 45.28392 -93.80212 34047 ft 402 kts 289°
2026-05-06 06:24 45.30699 -93.87450 34069 ft 402 kts 289°
2026-05-06 06:24 45.33006 -93.94714 34089 ft 403 kts 290°
2026-05-06 06:25 45.35319 -94.01996 34070 ft 405 kts 290°
2026-05-06 06:26 45.38785 -94.12957 34054 ft 405 kts 290°
2026-05-06 06:26 45.41094 -94.20286 34056 ft 406 kts 290°
2026-05-06 06:27 45.43387 -94.27584 34063 ft 406 kts 290°
2026-05-06 06:27 45.45694 -94.34952 34063 ft 407 kts 290°
2026-05-06 06:28 45.47993 -94.42317 34070 ft 407 kts 290°
2026-05-06 06:28 45.50291 -94.49705 34094 ft 408 kts 290°
2026-05-06 06:29 45.52595 -94.57115 34088 ft 409 kts 290°
2026-05-06 06:29 45.54908 -94.64545 34087 ft 410 kts 290°
2026-05-06 06:30 45.57196 -94.71953 34069 ft 411 kts 290°
2026-05-06 06:30 45.59491 -94.79431 34067 ft 411 kts 290°
2026-05-06 06:31 45.61798 -94.86919 34072 ft 412 kts 290°
2026-05-06 06:31 45.64095 -94.94424 34073 ft 412 kts 290°
2026-05-06 06:32 45.66386 -95.01943 34068 ft 413 kts 290°
2026-05-06 06:32 45.68678 -95.09478 34071 ft 413 kts 290°
2026-05-06 06:33 45.70967 -95.17038 34074 ft 415 kts 290°
2026-05-06 06:33 45.73264 -95.24632 34069 ft 416 kts 290°
2026-05-06 06:34 45.75566 -95.32246 34063 ft 417 kts 290°
2026-05-06 06:34 45.77848 -95.39828 34056 ft 417 kts 290°
2026-05-06 06:35 45.80135 -95.47468 34055 ft 417 kts 290°
2026-05-06 06:35 45.82421 -95.55128 34059 ft 418 kts 290°
2026-05-06 06:36 45.84700 -95.62790 34106 ft 418 kts 291°
2026-05-06 06:36 45.86993 -95.70490 34087 ft 420 kts 291°
2026-05-06 06:37 45.89283 -95.78198 34086 ft 420 kts 291°
2026-05-06 06:37 45.91568 -95.85936 34088 ft 421 kts 290°
2026-05-06 06:38 45.93839 -95.93680 34090 ft 421 kts 291°
2026-05-06 06:38 45.96108 -96.01437 34101 ft 421 kts 291°
2026-05-06 06:39 45.98381 -96.09200 34105 ft 421 kts 291°
2026-05-06 06:39 46.00647 -96.16971 34105 ft 421 kts 291°
2026-05-06 06:40 46.02894 -96.24697 34092 ft 422 kts 291°
2026-05-06 06:40 46.05164 -96.32497 34089 ft 423 kts 291°
2026-05-06 06:41 46.07427 -96.40322 34090 ft 423 kts 291°
2026-05-06 06:41 46.09686 -96.48155 34092 ft 423 kts 291°
2026-05-06 06:42 46.11934 -96.55993 34098 ft 423 kts 291°
2026-05-06 06:42 46.14176 -96.63849 34085 ft 424 kts 291°
2026-05-06 06:43 46.16423 -96.71708 34087 ft 424 kts 291°
2026-05-06 06:43 46.18664 -96.79577 34093 ft 424 kts 291°
2026-05-06 06:44 46.20885 -96.87416 34088 ft 425 kts 291°
2026-05-06 06:44 46.23116 -96.95338 34093 ft 426 kts 291°
2026-05-06 06:45 46.25344 -97.03266 34100 ft 426 kts 291°
2026-05-06 06:45 46.27571 -97.11205 34113 ft 426 kts 291°
2026-05-06 06:46 46.29798 -97.19145 34116 ft 426 kts 291°
2026-05-06 06:46 46.32012 -97.27099 34109 ft 427 kts 291°
2026-05-06 06:47 46.34223 -97.35073 34118 ft 427 kts 291°
2026-05-06 06:47 46.36444 -97.43066 34112 ft 428 kts 291°
2026-05-06 06:48 46.38657 -97.51077 34101 ft 429 kts 291°
2026-05-06 06:48 46.40850 -97.59063 34115 ft 429 kts 291°
2026-05-06 06:49 46.43053 -97.67111 34120 ft 430 kts 291°
2026-05-06 06:49 46.45253 -97.75175 34125 ft 430 kts 291°
2026-05-06 06:50 46.47453 -97.83245 34124 ft 430 kts 291°
2026-05-06 06:50 46.49647 -97.91331 34126 ft 430 kts 291°
2026-05-06 06:51 46.51468 -97.98058 34129 ft 430 kts 291°
2026-05-06 06:51 46.53642 -98.06147 34133 ft 430 kts 290°
2026-05-06 06:52 46.55811 -98.14243 34120 ft 430 kts 291°
2026-05-06 06:52 46.57985 -98.22354 34121 ft 431 kts 291°
2026-05-06 06:53 46.60161 -98.30473 34128 ft 431 kts 291°
2026-05-06 06:53 46.62325 -98.38598 34130 ft 431 kts 291°
2026-05-06 06:54 46.64483 -98.46748 34132 ft 431 kts 290°
2026-05-06 06:54 46.66628 -98.54895 34121 ft 432 kts 291°
2026-05-06 06:55 46.68734 -98.63028 34110 ft 432 kts 287°
2026-05-06 06:55 46.70372 -98.71516 34110 ft 433 kts 286°
2026-05-06 06:56 46.71983 -98.79916 34115 ft 433 kts 286°
2026-05-06 06:56 46.73600 -98.88374 34120 ft 433 kts 286°
2026-05-06 06:57 46.75210 -98.96846 34130 ft 434 kts 286°
2026-05-06 06:57 46.76822 -99.05326 34128 ft 434 kts 286°
2026-05-06 06:58 46.78426 -99.13807 34140 ft 434 kts 286°
2026-05-06 06:58 46.80023 -99.22296 34147 ft 434 kts 286°
2026-05-06 06:59 46.81612 -99.30800 34152 ft 434 kts 287°
2026-05-06 06:59 46.83200 -99.39312 34153 ft 434 kts 287°
2026-05-06 07:00 46.84777 -99.47825 34144 ft 434 kts 287°
2026-05-06 07:00 46.86348 -99.56357 34149 ft 434 kts 287°
2026-05-06 07:01 46.87917 -99.64879 34153 ft 434 kts 287°
2026-05-06 07:01 46.89487 -99.73411 34159 ft 434 kts 287°
2026-05-06 07:02 46.91036 -99.81956 34160 ft 435 kts 286°
2026-05-06 07:02 46.91653 -99.85375 34147 ft 435 kts 287°
2026-05-06 07:03 46.92528 -99.90579 34141 ft 424 kts 286°
2026-05-06 07:03 46.94008 -99.98740 34147 ft 406 kts 287°
2026-05-06 07:04 46.95445 -100.06499 34152 ft 389 kts 287°
2026-05-06 07:04 46.96799 -100.14001 34152 ft 373 kts 287°
2026-05-06 07:05 46.98076 -100.21210 34156 ft 358 kts 287°
2026-05-06 07:05 46.98694 -100.24710 34333 ft 350 kts 287°
2026-05-06 07:05 46.99307 -100.28168 34313 ft 358 kts 287°
2026-05-06 07:05 46.99945 -100.31738 34167 ft 366 kts 287°
2026-05-06 07:06 47.00589 -100.35370 34149 ft 371 kts 287°
2026-05-06 07:06 47.01897 -100.42801 34160 ft 381 kts 287°
2026-05-06 07:07 47.03236 -100.50440 34148 ft 392 kts 287°
2026-05-06 07:07 47.04607 -100.58301 34155 ft 404 kts 287°
2026-05-06 07:08 47.06015 -100.66399 34152 ft 416 kts 287°
2026-05-06 07:08 47.07450 -100.74728 34124 ft 427 kts 287°
2026-05-06 07:09 47.08676 -100.83352 34162 ft 436 kts 282°
2026-05-06 07:09 47.09577 -100.92145 34167 ft 436 kts 282°
2026-05-06 07:10 47.10467 -101.00955 34170 ft 436 kts 282°
2026-05-06 07:10 47.11349 -101.09718 34167 ft 436 kts 282°
2026-05-06 07:11 47.12240 -101.18528 34150 ft 437 kts 282°
2026-05-06 07:11 47.13123 -101.27352 34144 ft 437 kts 282°
2026-05-06 07:12 47.13998 -101.36193 34148 ft 437 kts 282°
2026-05-06 07:12 47.14865 -101.45037 34149 ft 438 kts 282°
2026-05-06 07:13 47.15733 -101.53891 34150 ft 438 kts 282°
2026-05-06 07:13 47.16603 -101.62748 34127 ft 438 kts 282°
2026-05-06 07:14 47.17455 -101.71615 34141 ft 438 kts 282°
2026-05-06 07:14 47.18277 -101.80488 34150 ft 438 kts 282°
2026-05-06 07:15 47.19099 -101.89373 34152 ft 438 kts 282°
2026-05-06 07:15 47.19923 -101.98254 34158 ft 439 kts 282°
2026-05-06 07:16 47.20751 -102.07145 34162 ft 439 kts 282°
2026-05-06 07:16 47.21569 -102.16043 34166 ft 439 kts 282°
2026-05-06 07:17 47.22381 -102.24940 34168 ft 439 kts 282°
2026-05-06 07:17 47.23184 -102.33849 34169 ft 439 kts 281°
2026-05-06 07:18 47.23970 -102.42767 34172 ft 439 kts 281°
2026-05-06 07:18 47.24750 -102.51617 34148 ft 439 kts 282°
2026-05-06 07:19 47.25541 -102.60531 34157 ft 440 kts 282°
2026-05-06 07:19 47.26322 -102.69465 34161 ft 440 kts 281°
2026-05-06 07:20 47.27085 -102.78410 34167 ft 440 kts 281°
2026-05-06 07:20 47.27841 -102.87354 34175 ft 440 kts 281°
2026-05-06 07:21 47.28594 -102.96312 34148 ft 441 kts 282°
2026-05-06 07:21 47.29349 -103.05282 34163 ft 441 kts 282°
2026-05-06 07:22 47.30093 -103.14283 34165 ft 442 kts 282°
2026-05-06 07:22 47.30830 -103.23272 34173 ft 442 kts 282°
2026-05-06 07:23 47.31562 -103.32284 34181 ft 442 kts 281°
2026-05-06 07:23 47.32282 -103.41286 34167 ft 443 kts 282°
2026-05-06 07:24 47.32999 -103.50302 34180 ft 443 kts 282°
2026-05-06 07:24 47.33712 -103.59327 34184 ft 443 kts 281°
2026-05-06 07:25 47.34418 -103.68355 34184 ft 443 kts 281°
2026-05-06 07:25 47.35110 -103.77324 34198 ft 443 kts 281°
2026-05-06 07:26 47.35800 -103.86358 34187 ft 443 kts 281°
2026-05-06 07:26 47.36490 -103.95398 34194 ft 443 kts 282°
2026-05-06 07:27 47.37184 -104.04442 34196 ft 444 kts 282°
2026-05-06 07:27 47.37855 -104.13488 34197 ft 444 kts 281°
2026-05-06 07:28 47.38508 -104.22548 34201 ft 444 kts 281°
2026-05-06 07:28 47.39488 -104.36129 34188 ft 444 kts 282°
2026-05-06 07:29 47.40133 -104.45193 34206 ft 444 kts 282°
2026-05-06 07:29 47.40770 -104.54267 34206 ft 444 kts 281°
2026-05-06 07:30 47.41401 -104.63339 34202 ft 444 kts 281°
2026-05-06 07:30 47.42027 -104.72421 34178 ft 444 kts 282°
2026-05-06 07:31 47.42642 -104.81497 34195 ft 444 kts 282°
2026-05-06 07:31 47.43252 -104.90573 34206 ft 444 kts 281°
2026-05-06 07:32 47.43855 -104.99661 34217 ft 444 kts 281°
2026-05-06 07:32 47.44449 -105.08743 34221 ft 444 kts 282°
2026-05-06 07:33 47.45025 -105.17837 34190 ft 444 kts 282°
2026-05-06 07:33 47.45592 -105.26858 34219 ft 444 kts 282°
2026-05-06 07:34 47.46067 -105.34464 34225 ft 444 kts 282°
2026-05-06 07:34 47.46721 -105.45030 34229 ft 444 kts 282°
2026-05-06 07:35 47.47281 -105.54116 34236 ft 444 kts 282°
2026-05-06 07:35 47.47834 -105.63195 34196 ft 444 kts 282°
2026-05-06 07:36 47.48295 -105.70809 34207 ft 444 kts 282°
2026-05-06 07:36 47.48835 -105.79843 34217 ft 444 kts 282°
2026-05-06 07:37 47.49364 -105.88946 34226 ft 444 kts 282°
2026-05-06 07:37 47.49882 -105.98057 34230 ft 445 kts 282°
2026-05-06 07:38 47.49763 -106.07358 34199 ft 452 kts 275°
2026-05-06 07:38 47.49464 -106.16646 34207 ft 452 kts 275°
2026-05-06 07:39 47.49165 -106.25886 34207 ft 453 kts 276°
2026-05-06 07:39 47.48858 -106.35190 34217 ft 454 kts 276°
2026-05-06 07:40 47.48540 -106.44511 34234 ft 454 kts 275°
2026-05-06 07:40 47.48217 -106.53831 34243 ft 454 kts 275°
2026-05-06 07:41 47.47885 -106.63162 34248 ft 455 kts 275°
2026-05-06 07:41 47.47538 -106.72489 34252 ft 455 kts 275°
2026-05-06 07:42 47.47186 -106.81814 34262 ft 455 kts 275°
2026-05-06 07:42 47.46826 -106.91156 34150 ft 455 kts 276°
2026-05-06 07:43 47.46463 -107.00493 34164 ft 455 kts 276°
2026-05-06 07:43 47.46088 -107.09839 34174 ft 456 kts 276°
2026-05-06 07:44 47.45708 -107.19192 34191 ft 456 kts 276°
2026-05-06 07:44 47.45320 -107.28542 34208 ft 456 kts 276°
2026-05-06 07:45 47.44927 -107.37900 34184 ft 456 kts 276°
2026-05-06 07:45 47.44528 -107.47265 34202 ft 457 kts 276°
2026-05-06 07:46 47.44121 -107.56646 34222 ft 457 kts 276°
2026-05-06 07:46 47.43699 -107.65965 34222 ft 458 kts 276°
2026-05-06 07:47 47.43270 -107.75348 34177 ft 458 kts 277°
2026-05-06 07:47 47.42832 -107.84720 34184 ft 458 kts 277°
2026-05-06 07:48 47.42389 -107.94104 34197 ft 458 kts 277°
2026-05-06 07:48 47.41941 -108.03491 34206 ft 458 kts 277°
2026-05-06 07:49 47.41474 -108.12883 34203 ft 459 kts 277°
2026-05-06 07:49 47.41001 -108.22273 34176 ft 458 kts 277°
2026-05-06 07:50 47.40527 -108.31669 34194 ft 458 kts 277°
2026-05-06 07:50 47.40050 -108.41059 34204 ft 459 kts 277°
2026-05-06 07:51 47.39558 -108.50444 34199 ft 459 kts 277°
2026-05-06 07:51 47.39061 -108.59772 34154 ft 459 kts 277°
2026-05-06 07:52 47.38555 -108.69160 34181 ft 458 kts 277°
2026-05-06 07:52 47.38042 -108.78541 34196 ft 459 kts 277°
2026-05-06 07:53 47.37522 -108.87920 34198 ft 458 kts 277°
2026-05-06 07:53 47.36993 -108.97296 34200 ft 458 kts 277°
2026-05-06 07:54 47.36452 -109.06672 34163 ft 458 kts 277°
2026-05-06 07:54 47.35988 -109.15950 34179 ft 449 kts 283°
2026-05-06 07:55 47.36236 -109.25075 34189 ft 445 kts 285°
2026-05-06 07:55 47.36488 -109.34194 34207 ft 445 kts 284°
2026-05-06 07:56 47.36721 -109.43316 34211 ft 445 kts 284°
2026-05-06 07:56 47.36948 -109.52444 34190 ft 445 kts 285°
2026-05-06 07:57 47.37173 -109.61575 34215 ft 445 kts 284°
2026-05-06 07:57 47.37387 -109.70687 34194 ft 444 kts 285°
2026-05-06 07:58 47.37599 -109.79752 34214 ft 444 kts 285°
2026-05-06 07:58 47.37811 -109.88917 34219 ft 444 kts 284°
2026-05-06 07:59 47.38003 -109.97950 34194 ft 443 kts 284°
2026-05-06 07:59 47.38180 -110.07036 34210 ft 443 kts 284°
2026-05-06 08:00 47.38048 -110.16209 34225 ft 461 kts 273°
2026-05-06 08:00 47.36666 -110.25581 34221 ft 468 kts 269°
2026-05-06 08:01 47.35218 -110.34939 34170 ft 468 kts 270°
2026-05-06 08:01 47.33763 -110.44279 34197 ft 467 kts 270°
2026-05-06 08:02 47.32306 -110.53615 34211 ft 467 kts 270°
2026-05-06 08:02 47.30841 -110.62951 34218 ft 467 kts 270°
2026-05-06 08:03 47.29391 -110.72208 34212 ft 467 kts 270°
2026-05-06 08:03 47.27929 -110.81514 34222 ft 467 kts 269°
2026-05-06 08:04 47.26441 -110.90840 34214 ft 467 kts 269°
2026-05-06 08:04 47.24943 -111.00150 34217 ft 467 kts 269°
2026-05-06 08:05 47.23436 -111.09467 34211 ft 467 kts 269°
2026-05-06 08:05 47.21944 -111.18696 34173 ft 466 kts 269°
2026-05-06 08:06 47.20440 -111.27970 34193 ft 466 kts 269°
2026-05-06 08:06 47.18925 -111.37243 34203 ft 466 kts 269°
2026-05-06 08:07 47.17398 -111.46513 34210 ft 466 kts 269°
2026-05-06 08:07 47.15864 -111.55769 34179 ft 466 kts 269°
2026-05-06 08:08 47.14320 -111.65027 34205 ft 466 kts 269°
2026-05-06 08:08 47.12772 -111.74278 34209 ft 467 kts 269°
2026-05-06 08:09 47.11215 -111.83536 34228 ft 466 kts 269°
2026-05-06 08:09 47.09652 -111.92778 34206 ft 467 kts 268°
2026-05-06 08:10 47.08092 -112.01971 34220 ft 467 kts 268°
2026-05-06 08:10 47.06512 -112.11220 34231 ft 467 kts 268°
2026-05-06 08:11 47.04927 -112.20468 34236 ft 467 kts 268°
2026-05-06 08:11 47.03327 -112.29726 34168 ft 468 kts 268°
2026-05-06 08:12 47.01721 -112.38954 34183 ft 467 kts 268°
2026-05-06 08:12 47.00106 -112.48177 34193 ft 467 kts 268°
2026-05-06 08:13 46.98487 -112.57388 34196 ft 467 kts 268°
2026-05-06 08:13 46.96862 -112.66602 34202 ft 467 kts 268°
2026-05-06 08:14 46.95233 -112.75820 34181 ft 467 kts 267°
2026-05-06 08:14 46.93598 -112.85019 34206 ft 467 kts 267°
2026-05-06 08:15 46.91965 -112.94150 34209 ft 467 kts 267°
2026-05-06 08:15 46.90305 -113.03334 34213 ft 466 kts 267°
2026-05-06 08:16 46.88661 -113.12489 34176 ft 464 kts 266°
2026-05-06 08:16 46.87000 -113.21612 34202 ft 464 kts 266°
2026-05-06 08:17 46.85334 -113.30663 34197 ft 464 kts 266°
2026-05-06 08:17 46.83659 -113.39761 34200 ft 464 kts 266°
2026-05-06 08:18 46.81982 -113.48851 34161 ft 463 kts 265°
2026-05-06 08:18 46.80298 -113.57921 34180 ft 463 kts 265°
2026-05-06 08:19 46.78612 -113.66974 34185 ft 462 kts 265°
2026-05-06 08:19 46.76924 -113.76026 34181 ft 463 kts 265°
2026-05-06 08:20 46.75222 -113.85082 34142 ft 463 kts 265°
2026-05-06 08:20 46.73521 -113.94067 34145 ft 462 kts 265°
2026-05-06 08:21 46.71802 -114.03093 34152 ft 462 kts 265°
2026-05-06 08:21 46.70078 -114.12115 34152 ft 462 kts 265°
2026-05-06 08:22 46.68389 -114.21134 34088 ft 460 kts 265°
2026-05-06 08:22 46.66994 -114.28621 34125 ft 461 kts 264°
2026-05-06 08:23 46.65304 -114.37611 34131 ft 461 kts 264°
2026-05-06 08:23 46.63588 -114.46591 34134 ft 460 kts 264°
2026-05-06 08:24 46.61865 -114.55564 34125 ft 460 kts 264°
2026-05-06 08:24 46.60143 -114.64528 34119 ft 459 kts 264°
2026-05-06 08:25 46.58424 -114.73477 34111 ft 460 kts 264°
2026-05-06 08:25 46.56691 -114.82423 34104 ft 459 kts 264°
2026-05-06 08:26 46.54950 -114.91365 34102 ft 460 kts 264°
2026-05-06 08:26 46.53226 -115.00250 34069 ft 460 kts 263°
2026-05-06 08:27 46.51481 -115.09180 34078 ft 460 kts 263°
2026-05-06 08:27 46.49724 -115.18110 34079 ft 460 kts 263°
2026-05-06 08:28 46.47950 -115.27046 34074 ft 460 kts 263°
2026-05-06 08:28 46.46168 -115.35954 34049 ft 460 kts 263°
2026-05-06 08:29 46.44384 -115.44860 34045 ft 459 kts 263°
2026-05-06 08:29 46.42616 -115.53688 34052 ft 458 kts 263°
2026-05-06 08:30 46.40827 -115.62565 34041 ft 459 kts 263°
2026-05-06 08:30 46.39026 -115.71430 34046 ft 459 kts 262°
2026-05-06 08:31 46.37216 -115.80283 34019 ft 458 kts 262°
2026-05-06 08:31 46.35409 -115.89120 34014 ft 457 kts 262°
2026-05-06 08:32 46.33602 -115.97934 34017 ft 457 kts 262°
2026-05-06 08:32 46.31774 -116.06740 34014 ft 457 kts 262°
2026-05-06 08:33 46.29938 -116.15533 33989 ft 456 kts 261°
2026-05-06 08:33 46.28103 -116.24334 33997 ft 456 kts 261°
2026-05-06 08:34 46.25361 -116.37450 33993 ft 456 kts 261°
2026-05-06 08:35 46.23510 -116.46229 33963 ft 456 kts 261°
2026-05-06 08:35 46.21658 -116.54996 33968 ft 457 kts 261°
2026-05-06 08:36 46.19846 -116.63792 33975 ft 457 kts 261°
2026-05-06 08:36 46.18049 -116.72606 33982 ft 457 kts 261°
2026-05-06 08:37 46.16253 -116.81351 33999 ft 458 kts 261°
2026-05-06 08:37 46.14427 -116.90143 33972 ft 459 kts 261°
2026-05-06 08:38 46.12579 -116.98955 33974 ft 459 kts 261°
2026-05-06 08:38 46.10726 -117.07773 33979 ft 460 kts 261°
2026-05-06 08:39 46.08869 -117.16600 33987 ft 460 kts 261°
2026-05-06 08:39 46.07007 -117.25415 33955 ft 460 kts 260°
2026-05-06 08:40 46.05133 -117.34222 33983 ft 460 kts 260°
2026-05-06 08:40 46.03255 -117.43033 33993 ft 461 kts 260°
2026-05-06 08:41 46.01380 -117.51788 34000 ft 461 kts 260°
2026-05-06 08:41 45.99487 -117.60594 33996 ft 460 kts 260°
2026-05-06 08:42 45.97589 -117.69387 34005 ft 460 kts 259°
2026-05-06 08:42 45.95685 -117.78158 34003 ft 460 kts 259°
2026-05-06 08:43 45.93774 -117.86940 34009 ft 459 kts 259°
2026-05-06 08:43 45.91862 -117.95696 33987 ft 459 kts 259°
2026-05-06 08:44 45.89941 -118.04430 33999 ft 458 kts 259°
2026-05-06 08:44 45.88032 -118.13086 33988 ft 457 kts 259°
2026-05-06 08:45 45.86106 -118.21790 33989 ft 457 kts 259°
2026-05-06 08:45 45.84172 -118.30459 33985 ft 456 kts 259°
2026-05-06 08:46 45.82233 -118.39134 33979 ft 456 kts 259°
2026-05-06 08:46 45.80294 -118.47792 33978 ft 456 kts 259°
2026-05-06 08:47 45.78353 -118.56449 33979 ft 456 kts 259°
2026-05-06 08:47 45.76399 -118.65104 33947 ft 456 kts 258°
2026-05-06 08:48 45.74436 -118.73742 33959 ft 456 kts 258°
2026-05-06 08:48 45.72462 -118.82380 33962 ft 456 kts 258°
2026-05-06 08:49 45.70484 -118.91012 33966 ft 456 kts 258°
2026-05-06 08:49 45.69158 -118.99761 34003 ft 448 kts 267°
2026-05-06 08:50 45.68141 -119.08485 33949 ft 448 kts 266°
2026-05-06 08:50 45.67094 -119.17270 33954 ft 448 kts 266°
2026-05-06 08:51 45.66051 -119.26043 33961 ft 447 kts 266°
2026-05-06 08:51 45.65007 -119.34803 33967 ft 447 kts 266°
2026-05-06 08:52 45.63948 -119.43566 33953 ft 447 kts 266°
2026-05-06 08:52 45.62883 -119.52321 33961 ft 447 kts 266°
2026-05-06 08:53 45.61813 -119.61064 33887 ft 445 kts 266°
2026-05-06 08:53 45.61281 -119.65381 33595 ft 437 kts 266°
2026-05-06 08:53 45.60757 -119.69620 33325 ft 430 kts 265°
2026-05-06 08:53 45.60238 -119.73810 33056 ft 427 kts 265°
2026-05-06 08:54 45.59726 -119.77970 32795 ft 424 kts 266°
2026-05-06 08:54 45.59217 -119.82107 32509 ft 422 kts 265°
2026-05-06 08:54 45.58707 -119.86225 32250 ft 418 kts 265°
2026-05-06 08:54 45.58199 -119.90293 31818 ft 415 kts 265°
2026-05-06 08:55 45.57694 -119.94337 31355 ft 413 kts 265°
2026-05-06 08:55 45.57190 -119.98361 30904 ft 410 kts 265°
2026-05-06 08:55 45.56692 -120.02308 30458 ft 408 kts 264°
2026-05-06 08:55 45.56188 -120.06279 30009 ft 406 kts 264°
2026-05-06 08:56 45.55685 -120.10240 29526 ft 403 kts 264°
2026-05-06 08:56 45.55188 -120.14156 29109 ft 399 kts 264°
2026-05-06 08:56 45.54696 -120.18036 28696 ft 396 kts 264°
2026-05-06 08:56 45.54207 -120.21882 28273 ft 393 kts 264°
2026-05-06 08:57 45.53721 -120.25697 27876 ft 390 kts 264°
2026-05-06 08:57 45.53234 -120.29486 27473 ft 387 kts 264°
2026-05-06 08:57 45.52747 -120.33259 27074 ft 385 kts 264°
2026-05-06 08:57 45.52261 -120.37003 26690 ft 383 kts 264°
2026-05-06 08:58 45.51823 -120.40735 26293 ft 378 kts 270°
2026-05-06 08:58 45.51780 -120.44439 25895 ft 371 kts 276°
2026-05-06 08:58 45.51854 -120.48105 25494 ft 369 kts 276°
2026-05-06 08:58 45.51919 -120.51753 25096 ft 367 kts 276°
2026-05-06 08:59 45.51979 -120.55388 24684 ft 366 kts 276°
2026-05-06 08:59 45.52036 -120.59013 24275 ft 365 kts 276°
2026-05-06 08:59 45.52092 -120.62622 23846 ft 364 kts 275°
2026-05-06 08:59 45.52145 -120.66218 23429 ft 362 kts 275°
2026-05-06 09:00 45.52197 -120.69803 22961 ft 360 kts 275°
2026-05-06 09:00 45.52248 -120.73351 22542 ft 356 kts 275°
2026-05-06 09:00 45.52299 -120.76869 22130 ft 354 kts 275°
2026-05-06 09:00 45.52353 -120.80367 21705 ft 351 kts 275°
2026-05-06 09:01 45.52404 -120.83793 21290 ft 349 kts 275°
2026-05-06 09:01 45.52455 -120.87240 20877 ft 347 kts 275°
2026-05-06 09:01 45.52505 -120.90715 20459 ft 345 kts 275°
2026-05-06 09:01 45.52551 -120.94131 20068 ft 343 kts 275°
2026-05-06 09:02 45.52591 -120.97479 19663 ft 341 kts 275°
2026-05-06 09:02 45.52629 -121.00858 19254 ft 340 kts 275°
2026-05-06 09:02 45.52668 -121.04218 18840 ft 338 kts 275°
2026-05-06 09:02 45.52702 -121.07563 18419 ft 337 kts 274°
2026-05-06 09:03 45.52727 -121.10924 17860 ft 339 kts 274°
2026-05-06 09:03 45.52744 -121.14278 17440 ft 336 kts 274°
2026-05-06 09:03 45.52761 -121.17596 17025 ft 333 kts 273°
2026-05-06 09:03 45.52776 -121.20887 16621 ft 331 kts 273°
2026-05-06 09:04 45.52791 -121.24157 16211 ft 328 kts 273°
2026-05-06 09:04 45.52805 -121.27394 15817 ft 326 kts 273°
2026-05-06 09:04 45.52819 -121.30613 15422 ft 324 kts 273°
2026-05-06 09:04 45.52833 -121.33822 15016 ft 323 kts 273°
2026-05-06 09:05 45.52845 -121.37020 14624 ft 322 kts 273°
2026-05-06 09:05 45.52858 -121.40207 14231 ft 321 kts 272°
2026-05-06 09:05 45.52870 -121.43387 13842 ft 320 kts 273°
2026-05-06 09:05 45.52882 -121.46557 13425 ft 319 kts 272°
2026-05-06 09:06 45.52894 -121.49714 13051 ft 317 kts 272°
2026-05-06 09:06 45.52904 -121.52844 12638 ft 315 kts 272°
2026-05-06 09:06 45.52913 -121.55944 12271 ft 311 kts 273°
2026-05-06 09:06 45.52920 -121.59022 11891 ft 309 kts 272°
2026-05-06 09:07 45.52925 -121.62081 11531 ft 308 kts 271°
2026-05-06 09:07 45.52928 -121.65122 11220 ft 304 kts 271°
2026-05-06 09:07 45.52930 -121.68084 11049 ft 295 kts 271°
2026-05-06 09:07 45.52930 -121.70981 10963 ft 291 kts 273°
2026-05-06 09:08 45.52973 -121.73859 10641 ft 293 kts 274°
2026-05-06 09:08 45.53083 -121.76759 10203 ft 289 kts 275°
2026-05-06 09:08 45.53216 -121.79591 9775 ft 287 kts 275°
2026-05-06 09:08 45.53356 -121.82432 9377 ft 286 kts 276°
2026-05-06 09:09 45.53490 -121.85232 8993 ft 281 kts 274°
2026-05-06 09:09 45.53614 -121.88014 8475 ft 276 kts 275°
2026-05-06 09:09 45.53690 -121.89780 8249 ft 265 kts 275°
2026-05-06 09:09 45.53796 -121.92363 7753 ft 257 kts 275°
2026-05-06 09:10 45.53898 -121.94852 7577 ft 250 kts 276°
2026-05-06 09:10 45.53999 -121.97354 7263 ft 258 kts 275°
2026-05-06 09:10 45.54101 -121.99909 6918 ft 252 kts 275°
2026-05-06 09:10 45.54161 -122.02326 6761 ft 237 kts 267°
2026-05-06 09:11 45.53972 -122.04629 6562 ft 231 kts 264°
2026-05-06 09:11 45.53766 -122.06903 6487 ft 231 kts 264°
2026-05-06 09:11 45.53560 -122.09167 6445 ft 230 kts 264°
2026-05-06 09:11 45.53353 -122.11436 6393 ft 230 kts 264°
2026-05-06 09:12 45.53144 -122.13701 6311 ft 230 kts 264°
2026-05-06 09:12 45.52936 -122.15948 6088 ft 226 kts 264°
2026-05-06 09:12 45.52732 -122.18110 5816 ft 214 kts 265°
2026-05-06 09:12 45.52539 -122.20158 5531 ft 204 kts 265°
2026-05-06 09:13 45.52355 -122.22113 5267 ft 195 kts 265°
2026-05-06 09:13 45.52180 -122.23992 5028 ft 191 kts 266°
2026-05-06 09:13 45.52006 -122.25871 4775 ft 191 kts 266°
2026-05-06 09:13 45.51832 -122.27742 4520 ft 190 kts 265°
2026-05-06 09:14 45.51658 -122.29606 4275 ft 189 kts 264°
2026-05-06 09:14 45.51485 -122.31460 4024 ft 188 kts 264°
2026-05-06 09:14 45.51312 -122.33303 3780 ft 187 kts 263°
2026-05-06 09:14 45.51140 -122.35135 3529 ft 186 kts 263°
2026-05-06 09:15 45.50966 -122.36957 3291 ft 185 kts 262°
2026-05-06 09:15 45.50860 -122.38767 3041 ft 181 kts 272°
2026-05-06 09:15 45.51134 -122.40476 2825 ft 176 kts 293°
2026-05-06 09:15 45.51676 -122.42029 2615 ft 175 kts 297°
2026-05-06 09:16 45.52254 -122.43549 2392 ft 174 kts 298°
2026-05-06 09:16 45.52841 -122.45061 2158 ft 174 kts 298°
2026-05-06 09:16 45.53426 -122.46559 1933 ft 168 kts 298°
2026-05-06 09:16 45.53987 -122.47992 1712 ft 159 kts 298°
2026-05-06 09:17 45.54510 -122.49328 1489 ft 151 kts 298°
2026-05-06 09:17 45.55018 -122.50626 1298 ft 149 kts 298°
2026-05-06 09:17 45.55519 -122.51909 1092 ft 148 kts 299°
2026-05-06 09:17 45.56017 -122.53183 901 ft 146 kts 299°
2026-05-06 09:18 45.56512 -122.54449 720 ft 145 kts 300°
2026-05-06 09:18 45.57004 -122.55702 492 ft 144 kts 300°
2026-05-06 09:18 45.57493 -122.56942 291 ft 143 kts 299°
2026-05-06 09:18 45.57971 -122.58178 92 ft 142 kts 300°
2026-05-06 09:19 45.58423 -122.59337 29 ft 121 kts 299°
2026-05-06 09:19 45.58749 -122.60170 29 ft 73 kts 300°
2026-05-06 09:19 45.58937 -122.60656 27 ft 48 kts 299°
2026-05-06 09:19 45.59084 -122.61036 29 ft 42 kts 299°
2026-05-06 09:20 45.59182 -122.61280 27 ft 24 kts 306°
2026-05-06 09:20 45.59322 -122.61298 28 ft 22 kts 33°
2026-05-06 09:20 45.59310 -122.61134 28 ft 19 kts 119°
2026-05-06 09:20 45.59246 -122.60969 28 ft 20 kts 119°
2026-05-06 09:21 45.59178 -122.60794 28 ft 21 kts 119°
2026-05-06 09:21 45.59102 -122.60615 28 ft 21 kts 130°
2026-05-06 09:21 45.58999 -122.60465 28 ft 18 kts 131°
2026-05-06 09:21 45.59009 -122.60313 28 ft 17 kts 105°
2026-05-06 09:22 45.58951 -122.60162 28 ft 18 kts 120°
2026-05-06 09:22 45.58893 -122.60008 28 ft 15 kts 118°
2026-05-06 09:22 45.58903 -122.59940 28 ft 6 kts 33°
2026-05-06 09:22 45.58927 -122.59913 28 ft 2 kts 40°
2026-05-06 09:23 45.58935 -122.59905 29 ft 0 kts 40°
2026-05-06 09:23 45.58938 -122.59901 29 ft 1 kts 40°
2026-05-06 09:23 45.58939 -122.59900 29 ft 0 kts 40°